{"data":{"norad_id":57232,"epoch":"2026-05-25T04:29:51.755712Z","epoch_age_seconds":52014,"freshness":"FRESH","line1":"1 57232U 23094Q   26145.18740458  .00000918  00000+0  42885-4 0  9990","line2":"2 57232  43.0032 318.7920 0001225 272.0428  88.0283 15.27574742159477","mean_motion":15.27574742,"eccentricity":0.0001225,"inclination_deg":43.0032,"raan_deg":318.792,"arg_perigee_deg":272.0428,"mean_anomaly_deg":88.0283,"bstar":4.2885e-5,"rev_number":15947,"period_min":94.267073185215,"perigee_km":482.22434320292,"apogee_km":483.90533765382,"semimajor_km":6861.2018404284,"source":"CELESTRAK","updated_at":"2026-05-25T13:38:18.254662Z"}}